User: anonymous   Login
Location: Unspecified
(0.0000°N, 0.0000°E)
Time: 04:18:03
(UTC+00:00)
Language:

Kosmos-1655 - Orbit

View from above orbital plane
View from above orbital plane
View from above satellite
View from above satellite

Ground track
Ground track

The orbit data is extracted from the following two-line orbital elements,

1 15751U 85041A   19053.93672441  .00000012  00000-0 -33196-5 0  9992
2 15751  82.9465 232.8577 0025735 310.6297 203.1540 13.71703190688727
Epoch (UTC): 22 February 2019 22:28:52
Eccentricity: 0.0025735
inclination: 82.9465°
perigee height: 974 km
apogee height: 1012 km
right ascension of ascending node: 232.8577°
argument of perigee: 310.6297°
revolutions per day: 13.71703190
mean anomaly at epoch: 203.1540°
orbit number at epoch: 68872

The dashed part of the orbit path shows where the satellite is in the earth's shadow,  

DLR